CZ-6A DEB, 63392

Orbit data source: Space-Track

CZ-6A DEB, 63392 is space debris in LEO originally from a launch on Tue, 06 Aug 2024 UTC launched from the Taiyaun Space Center, China (TSC). Debris objects in space refer to the collection of defunct objects orbiting the Earth. Examples of debris include non-operational satellites, rocket bodies, and fragments generated from explosions, collisions, or faulty payload assembly.

Loading next visibility...
Identifier
63392, 2024-140ADP
Orbit
LEO
Country
Flag of CNCN / PRC
Related business
Manufacturer
SAST
Mission
Spacecraft
Bus & Motor
Unknown
Mass
Unknown
Launch date (UTC)
2024-08-06 (2 years ago)
Launch vehicle
Unknown
Launch site
Taiyaun Space Center, China (TSC)
Object type
Payload
Rocket body
Debris
Shape & HBR
Unknown shape, 0.1 m
Radar Cross Section
Medium (>0.1 m² and <1 m²)

Expand to show TLE details & history
Last TLE update: 15 hours ago

TLE from 15 hours ago
0 CZ-6A DEB
1 63392U 24140ADP 26171.24300627  .00000293  00000-0  12718-3 0  9991
2 63392  89.0332 276.7442 0037864 170.0708 190.1239 14.21191002 94383
Epoch: 2026-06-20T05:49Z
TLE epoch observation values (Epoch: 2026-06-20T05:49:55.741Z)
Latitude
-0.00011°
Longitude
-79.19849°
Altitude
851.227 km
Speed
7.413 km/s
True Right ascension
18h 26m 58s
True Declination
0° 00' 00"
Sunlit
Object was in full shadow at epoch
Visualization orbit readout
Latitude
Unknown
Longitude
Unknown
Altitude
Unknown
Speed
Unknown
Apparent Right ascension
Unknown
Apparent Declination
Unknown
Sunlit
N/A
Visualization observer readout
Local Sidereal Time
07:23:56
Azimuth
Unknown
Elevation
Unknown
Doppler factor
Unknown
Orbital elements
Apogee altitude
845.526 km
Perigee altitude
791.028 km
Semi-major axis
7,196.414 km
Eccentricity
0.00379
Inclination
89.0332°
RAAN
276.7442°
Arg. of periapsis
170.0708°
True anomaly
190.04799°
Mean anomaly
190.1239°
Eccentric anomaly
190.08591°
Mean motion
3.55524 °/min
Orbital period
101.26 mins
BSTAR
0.00012718
Loading maneuver chart data...
Computing Atmospheric mass density...
Loading historical data...
Loading historical data...
Loading historical data...
Loading historical data...
Loading historical data...
Loading historical data...
Loading historical data...

Documentation

Showing up to 5 results
|